SHU313 EVRA-EYVI

Flight info

Callsign SHU313
Flight time N/A
Altitude 21000
Route ERIVA DCT PIFBO
Aircraft A320/M-SDE3FGHIRWY/LB1

Departure

Time 2026-05-07 23:19
Airport Riga International Airport (EVRA)

Arrival

Time N/A
Airport Vilnius International Airport (EYVI)
Time Latitude Longitude Altitude Speed Heading
2026-05-07 23:10 56.91554 23.97454 38 ft 0 kts 272°
2026-05-07 23:15 56.91554 23.97446 38 ft 4 kts 272°
2026-05-07 23:16 56.91529 23.97371 38 ft 8 kts 190°
2026-05-07 23:16 56.91471 23.97362 35 ft 10 kts 185°
2026-05-07 23:16 56.91401 23.97350 38 ft 10 kts 185°
2026-05-07 23:16 56.91338 23.97340 38 ft 10 kts 185°
2026-05-07 23:17 56.91250 23.97325 36 ft 14 kts 185°
2026-05-07 23:17 56.91151 23.97308 38 ft 14 kts 185°
2026-05-07 23:17 56.91050 23.97290 38 ft 15 kts 185°
2026-05-07 23:17 56.90956 23.97218 38 ft 16 kts 212°
2026-05-07 23:18 56.90846 23.97166 39 ft 17 kts 185°
2026-05-07 23:18 56.90721 23.97145 39 ft 18 kts 185°
2026-05-07 23:18 56.90646 23.96987 38 ft 19 kts 270°
2026-05-07 23:18 56.90702 23.96829 38 ft 14 kts
2026-05-07 23:19 56.90784 23.96855 37 ft 13 kts
2026-05-07 23:19 56.91011 23.96890 37 ft 71 kts
2026-05-07 23:19 56.91794 23.97018 38 ft 150 kts
2026-05-07 23:19 56.92904 23.97149 760 ft 153 kts
2026-05-07 23:20 56.93885 23.97281 1989 ft 138 kts
2026-05-07 23:20 56.94842 23.97442 2655 ft 141 kts
2026-05-07 23:20 56.95893 23.97629 3006 ft 163 kts
2026-05-07 23:20 56.97100 23.97845 3305 ft 185 kts
2026-05-07 23:21 56.98459 23.98084 3604 ft 205 kts
2026-05-07 23:21 56.99957 23.98340 4055 ft 224 kts
2026-05-07 23:21 57.01522 23.98600 4847 ft 228 kts
2026-05-07 23:21 57.03116 23.98866 5163 ft 231 kts
2026-05-07 23:22 57.04698 23.99217 5155 ft 227 kts 17°
2026-05-07 23:22 57.06015 24.00703 5159 ft 225 kts 49°
2026-05-07 23:22 57.06647 24.03312 5158 ft 230 kts 82°
2026-05-07 23:22 57.06581 24.06268 5160 ft 233 kts 90°
2026-05-07 23:23 57.06490 24.09242 5158 ft 233 kts 89°
2026-05-07 23:23 57.06416 24.12222 5158 ft 233 kts 89°
2026-05-07 23:23 57.06347 24.15195 5157 ft 233 kts 89°
2026-05-07 23:23 57.06218 24.18166 5155 ft 235 kts 98°
2026-05-07 23:24 57.05644 24.21008 5157 ft 241 kts 116°
2026-05-07 23:24 57.04551 24.23427 5563 ft 253 kts 136°
2026-05-07 23:24 57.03106 24.25314 6534 ft 256 kts 142°
2026-05-07 23:24 57.01630 24.27175 7359 ft 259 kts 142°
2026-05-07 23:25 57.00149 24.29040 8181 ft 263 kts 143°
2026-05-07 23:25 56.98626 24.30951 9010 ft 267 kts 144°
2026-05-07 23:25 56.97077 24.32887 9846 ft 271 kts 146°
2026-05-07 23:25 56.95375 24.34432 10590 ft 276 kts 162°
2026-05-07 23:26 56.93485 24.35173 11342 ft 279 kts 172°
2026-05-07 23:26 56.91561 24.35715 12139 ft 281 kts 172°
2026-05-07 23:26 56.89581 24.36270 12588 ft 298 kts 172°
2026-05-07 23:26 56.87485 24.37188 12810 ft 323 kts 162°
2026-05-07 23:27 56.83169 24.41001 13359 ft 361 kts 153°
2026-05-07 23:27 56.80932 24.43167 14008 ft 366 kts 154°
2026-05-07 23:27 56.78668 24.45351 14648 ft 370 kts 154°
2026-05-07 23:28 56.76379 24.47550 15296 ft 373 kts 154°
2026-05-07 23:28 56.74076 24.49755 15944 ft 376 kts 155°
2026-05-07 23:28 56.71749 24.51962 16581 ft 378 kts 157°
2026-05-07 23:28 56.69329 24.53650 17195 ft 378 kts 168°
2026-05-07 23:29 56.66770 24.54753 17828 ft 379 kts 171°
2026-05-07 23:29 56.64188 24.55817 18458 ft 382 kts 171°
2026-05-07 23:29 56.61591 24.56881 19030 ft 384 kts 172°
2026-05-07 23:29 56.58977 24.57954 19603 ft 386 kts 172°
2026-05-07 23:30 56.56347 24.59038 20147 ft 388 kts 172°
2026-05-07 23:30 56.53705 24.60133 20718 ft 390 kts 172°
2026-05-07 23:30 56.51049 24.61230 21053 ft 392 kts 172°
2026-05-07 23:30 56.48358 24.61998 21130 ft 392 kts 181°
2026-05-07 23:31 56.45624 24.62246 21137 ft 395 kts 182°
2026-05-07 23:31 56.42876 24.62486 21136 ft 396 kts 182°
2026-05-07 23:31 56.40120 24.62732 21135 ft 396 kts 182°
2026-05-07 23:31 56.37366 24.62989 21137 ft 397 kts 181°
2026-05-07 23:32 56.34615 24.63641 21130 ft 400 kts 176°
2026-05-07 23:32 56.31867 24.64400 21130 ft 400 kts 176°
2026-05-07 23:32 56.29117 24.65155 21131 ft 400 kts 176°
2026-05-07 23:32 56.26370 24.65912 21130 ft 400 kts 176°
2026-05-07 23:33 56.23619 24.66671 21127 ft 400 kts 176°
2026-05-07 23:33 56.20869 24.67427 21126 ft 400 kts 176°
2026-05-07 23:33 56.18152 24.68168 21127 ft 400 kts 176°
2026-05-07 23:33 56.15404 24.68918 21107 ft 400 kts 177°
2026-05-07 23:34 56.12655 24.69664 21109 ft 399 kts 177°
2026-05-07 23:34 56.09905 24.70406 21111 ft 399 kts 177°
2026-05-07 23:34 56.07155 24.71144 21107 ft 399 kts 177°
2026-05-07 23:34 56.04408 24.71881 21105 ft 399 kts 177°
2026-05-07 23:35 56.02553 24.72378 21107 ft 399 kts 177°